{"data":{"norad_id":37214,"intl_designator":"2010-059A","name":"FENGYUN 3B","alt_names":[],"object_type":"PAYLOAD","status":"ACTIVE","operator":null,"country":"PRC","launch_date":"2010-11-04","launch_site_code":"TAISC","launch_vehicle":null,"mission":null,"orbit_class":"UNKNOWN","rcs_meters":6.2136,"size_class":null,"mass_kg":null,"dimensions":null,"purposes":["earth_obs"],"wikipedia_slug":null,"has_3d_model":false,"image_url":null,"decayed_at":null,"tle_current":{"epoch":"2026-09-20T05:06:01.944864Z","epoch_age_seconds":29108,"freshness":"FRESH","line1":"1 37214U 10059A   26263.21252251  .00000250  00000+0  15255-3 0  9998","line2":"2 37214  98.9530 309.5874 0021066 277.8602 168.2115 14.14858255820867","mean_motion":14.14858255,"eccentricity":0.0021066,"inclination_deg":98.953,"raan_deg":309.5874,"arg_perigee_deg":277.8602,"mean_anomaly_deg":168.2115,"bstar":0.00015255,"rev_number":82086,"period_min":101.77697977244,"perigee_km":827.58278841385,"apogee_km":858.00601659889,"semimajor_km":7220.9314025064,"source":"CELESTRAK","updated_at":"2026-09-20T09:00:33.214156Z"}}}